Presure
188 188 185 186 192 196 184 188 191 187 186 190 192 192 191 189 191 192 192 185 184 191 189 190 195 188 152
173 177 198 198 191 195 198 195 190 191 193 194 197 200 195 194 184 171 187 187 188 189 189 184 194 193 186
226 204 233 225 205 205 201 199 203 201 200 204 189 179 193 194 194 191 195 193 186 193 199 200 198 190 197
223 215 215 224 227 227 223 218 216 212 210 205 204 202 201 203 205 205 191 207 206 213 200 202 193 196 195
193 220 226 217 222 224 234 219 236 217 218 208 192 219 222 222 217 218 214 216 215 212 210 214 216 213 212
236 243 231 209 220 217 214 220 224 209 232 232 232 239 240 236 225 220 231 219 221 225 222 219 215 209 201
216 232 247 235 222 219 231 205 210 205 213 225 226 226 232 234 237 237 237 234 231 215 215 223 225 221 222
233 222 232 238 237 231 215 217 223 219 225 226 220 226 215 217 229 220 228 230 226 219 215 213 222 225 219
237 239 229 227 227 228 236 235 232 217 219 218 213 217 221 216 211 213 210 207 205 207 207 214 210 211 213
241 235 232 238 221 246 229 239 232 223 222 218 222 224 215 215 215 215 216 210 208 208 213 211 206 205 205
251 243 241 243 245 237 235 236 230 237 231 226 235 229 226 209 212 213 212 213 215 215 210 201 206 212 216
262 250 263 253 239 239 229 248 231 244 244 227 234 234 235 222 229 221 220 226 221 218 220 216 220 220 224
257 255 239 246 253 249 241 237 230 234 228 232 237 240 236 233 233 240 233 225 226 229 230 227 230 226 229
239 242 241 240 243 241 231 237 237 232 234 237 238 241 245 242 239 238 235 237 236 229 228 229 226 237 234
240 239 238 235 235 238 230 229 229 229 227 233 241 243 240 241 243 244 241 230 229 227 224 214 206 196 212
242 240 238 232 230 230 229 229 233 230 250 249 246 248 255 227 233 228 220 216 215 212 209 212 213 212 213
245 242 240 240 239 239 239 240 237 234 235 233 234 235 231 225 224 230 228 228 228 226 228 231 234 232 234
Wind_Speed
139 142 135 130 135 136 123 127 128 122 122 123 123 122 120 118 118 117 115 115 114 115 113 113 112 111 102
122 125 148 150 143 142 140 136 129 130 130 131 131 130 126 125 118 111 118 118 117 119 116 114 117 113 114
135 145 127 139 138 151 145 142 144 140 137 137 125 118 123 126 126 122 123 121 118 121 125 125 125 118 121
136 139 140 135 131 135 144 150 152 148 146 141 137 133 132 135 134 134 127 136 133 132 122 127 123 124 126
135 136 131 140 138 137 126 132 129 140 148 142 128 140 143 140 140 137 134 133 131 130 127 126 124 124 126
126 125 134 143 140 142 143 141 139 132 138 136 133 125 124 126 133 136 127 129 128 125 126 126 128 127 127
133 130 127 137 142 142 134 139 136 135 136 134 133 127 124 121 120 120 118 118 119 125 124 120 120 123 123
131 137 130 127 133 137 140 138 136 136 131 131 135 129 136 132 123 123 116 113 113 115 120 120 115 112 115
136 133 134 135 139 137 133 132 134 137 139 142 140 139 135 130 129 125 125 124 124 123 123 121 121 121 120
139 137 137 137 141 136 137 132 137 135 139 143 141 138 132 130 131 131 125 128 128 129 128 128 128 129 128
138 138 140 137 141 141 138 138 134 136 140 137 136 140 132 132 132 132 134 134 133 132 132 130 133 134 134
139 137 139 139 142 142 135 140 133 139 138 136 135 136 135 129 123 127 130 130 130 130 129 131 132 132 131
136 139 136 139 141 139 139 136 131 131 129 130 133 133 131 129 129 129 126 128 131 132 132 133 132 132 132
135 136 136 138 138 137 133 136 136 133 133 134 134 136 137 135 133 132 131 131 128 127 129 129 131 132 132
137 137 137 137 138 138 136 135 133 132 132 135 138 139 136 135 135 136 133 127 127 126 125 123 122 121 125
137 137 137 137 137 138 137 137 137 134 142 140 139 139 141 126 128 126 125 126 126 127 128 128 127 128 129
138 137 136 137 137 137 136 137 136 135 134 133 132 131 129 124 126 130 127 129 131 132 133 133 133 135 137
Wind_Direction
254 255 258 258 258 258 257 259 259 260 260 261 263 263 264 266 266 267 269 269 270 271 271 272 275 275 271
253 255 255 255 258 259 259 259 259 260 261 262 263 263 264 265 266 266 268 269 271 271 272 274 275 275 274
250 253 250 253 256 256 257 259 260 261 261 262 263 264 266 267 266 267 269 270 271 272 274 275 275 275 277
249 251 253 252 252 253 255 256 258 259 261 262 263 264 266 267 269 271 268 270 270 270 271 272 273 274 276
252 249 250 252 252 253 253 255 255 258 260 262 264 264 265 265 266 266 268 268 270 273 274 275 275 274 274
247 248 247 253 251 252 255 256 256 260 259 260 262 261 262 264 265 268 268 269 269 270 272 272 273 275 274
249 249 248 248 251 253 252 260 260 263 262 260 261 262 263 265 265 266 267 268 268 269 270 271 271 272 272
247 248 249 250 252 253 256 256 257 259 261 262 263 263 264 266 266 268 269 269 269 269 269 270 271 271 271
250 249 249 250 253 254 255 256 257 260 261 263 264 264 265 268 270 270 269 270 270 271 271 271 272 271 271
249 250 251 251 254 252 254 254 256 258 258 262 263 265 267 269 270 269 269 270 270 270 270 270 272 272 273
250 251 253 253 254 255 256 255 256 257 258 262 262 264 266 264 267 268 268 268 268 269 270 272 274 274 274
248 252 251 252 254 256 259 257 260 260 262 262 263 264 264 265 264 265 268 269 270 270 270 271 272 272 274
250 250 254 254 255 256 257 259 260 260 262 264 265 265 265 265 266 268 268 269 271 272 273 273 274 274 274
252 253 254 256 257 258 260 261 262 264 264 265 265 267 268 269 270 270 271 272 270 269 271 271 271 273 273
254 255 256 258 259 260 261 262 263 264 265 266 266 266 267 268 270 271 271 270 270 270 269 268 269 269 271
253 254 255 256 257 259 260 261 262 263 264 265 265 266 267 266 267 267 267 267 267 267 267 268 269 270 271
254 254 255 256 257 258 259 259 261 262 264 265 266 266 267 267 267 268 268 268 268 268 269 270 271 270 271